Flag for U.S.A. Weather past 2 weeks in Fremont, California, U.S.A.

Now
55 °F

Clear.


Feels Like: 55 °F
Forecast: 51 / 73 °F
Wind: 3 mph from South

Location: Moffett Field

Current Time: Mar 28, 2015 at 2:23:25 AM

Latest Report: Mar 28, 2015 at 1:56 AM


Visibility: 10 mi

Pressure: 30.18 "Hg

Humidity: 80%

Dew point: 49 °F

Location of FremontLocation

Historic Weather in Fremont — Graph

°F

Fremont temperature yesterday

Maximum temperature yesterday: 66 °F (at 3:56 PM)
Minimum temperature yesterday: 56 °F (at 5:56 AM)
Average temperature yesterday: 60 °F

Past Weeks' High & Low Weather Summary

 TemperatureHumidityPressure
High82 °F (Mar 14, 2:56 PM)90% (Mar 23, 1:56 AM)30.33 "Hg (Mar 23, 1:56 AM)
Low48 °F (Mar 18, 4:56 AM)27% (Mar 19, 12:56 PM)29.97 "Hg (Mar 14, 6:56 PM)
Average62 °F65%30.13 "Hg
* Reported Mar 13 12:56 AM — Mar 28 12:56 AM, Fremont, Weather by CustomWeather, © 2015

Note: Actual official high and low records may vary slightly from our data, if they occured in-between our weather recording intervals... More about our weather records

Advertising

Fremont weather history for previous 24 hours

 ConditionsComfort  
Time TempWeatherWind HumidityBarometerVisibility
12:56 AM
Sat, Mar 28
56 °FClear.No wind81%30.19 "Hg10 mi
11:56 PM
Fri, Mar 27
57 °FClear.3 mph78%30.19 "Hg10 mi
10:56 PM57 °FClear.No wind74%30.19 "Hg10 mi
9:56 PM58 °FClear.No wind70%30.19 "Hg10 mi
8:56 PM57 °FClear.10 mph78%30.18 "Hg10 mi
7:56 PM58 °FSunny.9 mph75%30.16 "Hg10 mi
6:56 PM60 °FSunny.15 mph78%30.14 "Hg10 mi
5:56 PM63 °FSunny.15 mph73%30.13 "Hg10 mi
4:56 PM65 °FSunny.14 mph70%30.13 "Hg10 mi
3:56 PM66 °FSunny.17 mph70%30.13 "Hg10 mi
2:56 PM65 °FSunny.16 mph70%30.14 "Hg10 mi
1:56 PM65 °FSunny.10 mph70%30.15 "Hg10 mi
12:56 PM65 °FSunny.12 mph70%30.17 "Hg10 mi
11:56 AM63 °FSunny.9 mph70%30.18 "Hg10 mi
10:56 AM62 °FSunny.10 mph75%30.18 "Hg10 mi
9:56 AM62 °FScattered clouds.8 mph78%30.17 "Hg10 mi
8:56 AM58 °FScattered clouds.No wind87%30.16 "Hg10 mi
7:56 AM56 °FClear.3 mph90%30.14 "Hg10 mi
6:56 AM56 °FClear.3 mph87%30.12 "Hg10 mi
5:56 AM56 °FClear.3 mph87%30.11 "Hg10 mi
4:56 AM58 °FClear.No wind81%30.10 "Hg10 mi
3:56 AM59 °FClear.No wind81%30.10 "Hg10 mi
2:56 AM60 °FClear.No wind80%30.11 "Hg10 mi
Weather by CustomWeather, © 2015

See weather overviewHow to use our weather pages